TimeCDT,TemperatureF,Dew PointF,Humidity,Sea Level PressureIn,VisibilityMPH,Wind Direction,Wind SpeedMPH,Gust SpeedMPH,PrecipitationIn,Events,Conditions,WindDirDegrees,DateUTC
12:15 AM,63.7,60.8,90,30.18,7.0,SE,6.9,-,N/A,,Overcast,140,2013-08-17 05:15:00
12:35 AM,63.5,60.1,89,30.18,7.0,SE,4.6,-,N/A,,Overcast,140,2013-08-17 05:35:00
12:55 AM,63.0,59.9,90,30.18,7.0,SSE,4.6,-,N/A,,Overcast,150,2013-08-17 05:55:00
1:15 AM,62.6,59.2,89,30.18,7.0,SSE,4.6,-,N/A,,Overcast,150,2013-08-17 06:15:00
1:35 AM,62.6,59.0,88,30.18,10.0,SE,5.8,-,N/A,,Overcast,140,2013-08-17 06:35:00
1:55 AM,61.9,58.6,89,30.18,10.0,SE,4.6,-,N/A,,Mostly Cloudy,140,2013-08-17 06:55:00
2:15 AM,61.7,58.3,89,30.17,10.0,SSE,4.6,-,N/A,,Mostly Cloudy,150,2013-08-17 07:15:00
2:35 AM,61.3,58.3,90,30.17,10.0,SSE,3.5,-,N/A,,Mostly Cloudy,150,2013-08-17 07:35:00
2:55 AM,60.8,57.7,90,30.16,7.0,SE,5.8,-,N/A,,Scattered Clouds,140,2013-08-17 07:55:00
3:15 AM,60.3,57.4,90,30.17,7.0,SE,3.5,-,N/A,,Scattered Clouds,140,2013-08-17 08:15:00
3:35 AM,59.5,57.2,92,30.17,7.0,Calm,Calm,-,N/A,,Scattered Clouds,0,2013-08-17 08:35:00
3:55 AM,59.2,57.2,93,30.17,5.0,SE,4.6,-,N/A,,Mostly Cloudy,130,2013-08-17 08:55:00
4:15 AM,59.9,57.4,91,30.16,5.0,SE,4.6,-,N/A,,Mostly Cloudy,140,2013-08-17 09:15:00
4:35 AM,59.0,57.2,94,30.16,5.0,SSE,3.5,-,N/A,,Scattered Clouds,150,2013-08-17 09:35:00
4:55 AM,59.4,57.6,94,30.16,5.0,SE,3.5,-,N/A,,Mostly Cloudy,140,2013-08-17 09:55:00
5:15 AM,59.0,57.2,94,30.16,5.0,SE,5.8,-,N/A,,Mostly Cloudy,130,2013-08-17 10:15:00
5:35 AM,59.0,57.2,94,30.16,5.0,SE,5.8,-,N/A,,Mostly Cloudy,130,2013-08-17 10:35:00
5:55 AM,58.5,56.7,94,30.16,4.0,SE,4.6,-,N/A,,Scattered Clouds,130,2013-08-17 10:55:00
6:15 AM,58.1,56.7,95,30.16,4.0,SE,4.6,-,N/A,,Clear,130,2013-08-17 11:15:00
6:35 AM,58.1,56.7,95,30.16,4.0,SE,4.6,-,N/A,,Scattered Clouds,130,2013-08-17 11:35:00
6:55 AM,57.9,56.7,96,30.16,2.5,SE,3.5,-,N/A,,Mist,140,2013-08-17 11:55:00
7:15 AM,58.1,56.7,95,30.17,3.0,SE,4.6,-,N/A,,Mist,130,2013-08-17 12:15:00
7:35 AM,58.5,57.2,96,30.17,4.0,SE,3.5,-,N/A,,Clear,130,2013-08-17 12:35:00
7:55 AM,59.4,57.2,93,30.17,5.0,SE,3.5,-,N/A,,Clear,140,2013-08-17 12:55:00
8:15 AM,60.8,58.1,91,30.17,5.0,SSE,5.8,-,N/A,,Clear,150,2013-08-17 13:15:00
8:35 AM,62.4,58.5,87,30.18,10.0,SSE,9.2,-,N/A,,Clear,160,2013-08-17 13:35:00
8:55 AM,63.5,59.0,85,30.18,10.0,SSE,6.9,-,N/A,,Clear,160,2013-08-17 13:55:00
9:15 AM,64.8,59.5,83,30.18,10.0,South,9.2,-,N/A,,Clear,170,2013-08-17 14:15:00
9:35 AM,66.4,60.1,80,30.18,10.0,South,9.2,-,N/A,,Clear,180,2013-08-17 14:35:00
9:55 AM,66.9,59.9,78,30.18,10.0,South,10.4,-,N/A,,Mostly Cloudy,170,2013-08-17 14:55:00
10:15 AM,66.7,59.7,78,30.18,10.0,South,11.5,-,N/A,,Overcast,180,2013-08-17 15:15:00
10:35 AM,67.8,60.1,76,30.17,10.0,South,11.5,-,N/A,,Overcast,180,2013-08-17 15:35:00
10:55 AM,69.4,61.0,74,30.17,10.0,South,11.5,-,N/A,,Overcast,180,2013-08-17 15:55:00
11:15 AM,69.6,60.6,73,30.17,10.0,South,13.8,-,N/A,,Overcast,180,2013-08-17 16:15:00
11:35 AM,70.5,61.9,74,30.17,10.0,South,12.7,18.4,N/A,,Overcast,180,2013-08-17 16:35:00
11:55 AM,71.6,62.8,74,30.16,10.0,SSE,11.5,17.3,N/A,,Mostly Cloudy,160,2013-08-17 16:55:00
12:15 PM,72.7,63.0,71,30.15,10.0,South,11.5,16.1,N/A,,Scattered Clouds,170,2013-08-17 17:15:00
12:35 PM,73.6,63.3,70,30.15,10.0,South,12.7,19.6,N/A,,Scattered Clouds,190,2013-08-17 17:35:00
12:55 PM,73.9,63.3,69,30.15,10.0,South,15.0,20.7,N/A,,Mostly Cloudy,180,2013-08-17 17:55:00
1:15 PM,74.1,63.1,68,30.15,10.0,South,12.7,16.1,N/A,,Mostly Cloudy,170,2013-08-17 18:15:00
1:35 PM,75.0,63.0,66,30.14,10.0,SSE,13.8,-,N/A,,Overcast,160,2013-08-17 18:35:00
1:55 PM,74.5,62.6,66,30.13,10.0,South,11.5,-,N/A,,Overcast,190,2013-08-17 18:55:00
2:15 PM,74.3,62.2,66,30.13,10.0,South,10.4,-,N/A,,Overcast,180,2013-08-17 19:15:00
2:35 PM,75.4,62.8,65,30.13,10.0,South,12.7,-,N/A,,Overcast,180,2013-08-17 19:35:00
2:55 PM,75.2,61.9,63,30.12,10.0,SSE,15.0,-,N/A,,Mostly Cloudy,160,2013-08-17 19:55:00
3:15 PM,76.1,61.7,61,30.12,10.0,South,16.1,20.7,N/A,,Scattered Clouds,170,2013-08-17 20:15:00
3:35 PM,76.6,62.1,61,30.12,10.0,South,15.0,-,N/A,,Scattered Clouds,170,2013-08-17 20:35:00
3:55 PM,76.1,63.0,64,30.11,10.0,South,13.8,17.3,N/A,,Mostly Cloudy,170,2013-08-17 20:55:00
4:15 PM,75.6,62.4,64,30.11,10.0,SSE,11.5,18.4,N/A,,Mostly Cloudy,150,2013-08-17 21:15:00
4:35 PM,75.6,61.9,62,30.11,10.0,SSE,12.7,19.6,N/A,,Scattered Clouds,160,2013-08-17 21:35:00
4:55 PM,74.5,62.4,66,30.11,10.0,SSE,10.4,-,N/A,,Mostly Cloudy,150,2013-08-17 21:55:00
5:15 PM,74.3,62.1,65,30.11,10.0,SSE,15.0,-,N/A,,Overcast,160,2013-08-17 22:15:00
5:35 PM,74.5,62.4,66,30.11,10.0,SSE,11.5,-,N/A,,Mostly Cloudy,150,2013-08-17 22:35:00
5:55 PM,74.3,62.4,66,30.10,10.0,SSE,11.5,17.3,N/A,,Mostly Cloudy,150,2013-08-17 22:55:00
6:15 PM,73.8,61.7,66,30.11,10.0,SSE,15.0,-,N/A,,Mostly Cloudy,160,2013-08-17 23:15:00
6:35 PM,74.1,62.4,67,30.10,10.0,SSE,9.2,-,N/A,,Mostly Cloudy,150,2013-08-17 23:35:00
6:55 PM,73.0,62.1,68,30.10,10.0,SSE,11.5,-,N/A,,Overcast,160,2013-08-17 23:55:00
7:15 PM,72.5,62.2,70,30.10,10.0,SSE,10.4,-,N/A,,Scattered Clouds,150,2013-08-18 00:15:00
7:35 PM,71.1,61.9,73,30.10,10.0,SSE,6.9,-,N/A,,Clear,150,2013-08-18 00:35:00
7:55 PM,70.0,61.7,75,30.10,10.0,SE,8.1,-,N/A,,Clear,140,2013-08-18 00:55:00
8:15 PM,68.7,61.7,78,30.11,10.0,SE,6.9,-,N/A,,Clear,140,2013-08-18 01:15:00
8:35 PM,67.5,61.2,80,30.10,10.0,SE,8.1,-,N/A,,Scattered Clouds,140,2013-08-18 01:35:00
8:55 PM,67.1,60.6,80,30.10,10.0,SE,8.1,-,N/A,,Clear,140,2013-08-18 01:55:00
9:15 PM,66.6,60.3,80,30.11,10.0,SE,6.9,-,N/A,,Scattered Clouds,140,2013-08-18 02:15:00
9:35 PM,66.2,59.9,80,30.11,10.0,SE,6.9,-,N/A,,Mostly Cloudy,130,2013-08-18 02:35:00
9:55 PM,65.1,59.9,83,30.11,10.0,SE,5.8,-,N/A,,Mostly Cloudy,140,2013-08-18 02:55:00
10:15 PM,64.8,59.9,84,30.11,10.0,SE,6.9,-,N/A,,Mostly Cloudy,140,2013-08-18 03:15:00
10:35 PM,64.4,59.2,83,30.12,10.0,SE,5.8,-,N/A,,Scattered Clouds,140,2013-08-18 03:35:00
10:55 PM,63.7,58.8,84,30.12,10.0,SSE,4.6,-,N/A,,Scattered Clouds,150,2013-08-18 03:55:00
11:15 PM,63.5,58.5,84,30.13,10.0,SE,5.8,-,N/A,,Mostly Cloudy,140,2013-08-18 04:15:00
11:35 PM,63.5,58.1,83,30.13,10.0,SSE,5.8,-,N/A,,Mostly Cloudy,150,2013-08-18 04:35:00
11:55 PM,63.7,57.7,81,30.13,10.0,SE,6.9,-,N/A,,Overcast,140,2013-08-18 04:55:00